Regional Weather Roundup
Issued by NWS

Home | Current Version | Previous Version | Text Only | Print | Product List | Glossary Off
Versions: 1 2 3 4 5 6 7 8 9 10 11 12 13 14 15 16 17 18 19 20 21 22 23 24 25 26 27 28 29 30 31 32 33 34 35 36 37 38 39 40 41 42 43 44 45 46 47 48 49 50

000
ASUS43 KLSX 101607
RWRMO

WEATHER SUMMARY FOR MISSOURI
NATIONAL WEATHER SERVICE SPRINGFIELD MO
1100 AM CDT THU JUL 10 2014

NOTE: "FAIR" INDICATES FEW OR NO CLOUDS BELOW 12,000 FEET WITH NO
       SIGNIFICANT WEATHER AND/OR OBSTRUCTIONS TO VISIBILITY.
       CURRENT SKY AND/OR WEATHER CONDITIONS ARE NOT AVAILABLE FOR
       CHILLICOTHE AND FARMINGTON.

MOZ001>031-035>038-043-044-053-054-101700-
...NORTHERN AND WESTERN MISSOURI...

CITY           SKY/WX    TMP DP  RH WIND       PRES   REMARKS
KANSAS CTY INT PTSUNNY   77  64  64 SE13      30.10S
KANSAS C DTWN  PTSUNNY   78  63  59 S9        30.09S
LEE`S SUMMIT   PTSUNNY   76  63  64 SE9       30.11S
ST JOSEPH      MOSUNNY   79  64  60 S13       30.08F
CHILLICOTHE      N/A     77  60  55 VRB7      30.14S
KIRKSVILLE     SUNNY     76  60  57 S10       30.16R

$$
MOZ066>068-077>081-088>096-101>105-101700-
...SOUTHWEST MISSOURI...

CITY           SKY/WX    TMP DP  RH WIND       PRES   REMARKS
SPRINGFIELD    CLOUDY    74  63  68 SE7       30.12S
JOPLIN         LGT RAIN  68  65  90 S7        30.11S

$$
MOZ032>034-039>042-045>050-055>058-069>072-101700-
...CENTRAL MISSOURI...

CITY           SKY/WX    TMP DP  RH WIND       PRES   REMARKS
COLUMBIA       CLOUDY    75  61  61 SE7       30.16R
JEFFERSON CITY CLOUDY    74  63  68 VRB5      30.14F
ROLLA          PTSUNNY   74  59  59 E7        30.15S
SEDALIA        CLOUDY    76  63  64 SE8       30.14S
WHITEMAN AFB   MOSUNNY   76  56  51 SE8       30.11F
OSAGE BEACH    CLOUDY    75  63  64 SE5       30.14S

$$
MOZ051-052-059>065-101700-
...EAST CENTRAL MISSOURI...

CITY           SKY/WX    TMP DP  RH WIND       PRES   REMARKS
ST LOUIS INTL  PTSUNNY   79  57  46 E7        30.17R
SPIRIT OF STL  PTSUNNY   78  59  51 E3        30.15R
ST CHARLES     MOSUNNY   78  60  53 E7        30.15R

$$
MOZ072>076-082>087-097>100-106>115-101700-
...SOUTH CENTRAL AND SOUTHEAST MISSOURI...

CITY           SKY/WX    TMP DP  RH WIND       PRES   REMARKS
CAPE GIRARDEAU PTSUNNY   80  63  55 E5        30.12R
FARMINGTON     CLOUDY    75  59  57 E7        30.18S
POPLAR BLUFF   PTSUNNY   79  64  60 VRB5      30.11S
WEST PLAINS    CLOUDY    74  63  68 E5        30.16R

$$



USA.gov is the U.S. government's official web portal to all federal, state and local government web resources and services.